Regional Weather Roundup
Issued by NWS Kansas City/Pleasant Hill, MO

Home | Current Version | Previous Version | Graphics & Text | Print | Product List | Glossary Off
Versions: 1 2 3 4 5 6 7 8 9 10 11 12 13 14 15 16 17 18 19 20 21 22 23 24 25 26 27 28 29 30 31 32 33 34 35 36 37 38 39 40 41 42 43 44 45 46 47 48 49 50

000
ASUS43 KEAX 301110
RWREAX

WEATHER ROUNDUP FOR EASTERN KANSAS AND NORTHWEST MISSOURI
NATIONAL WEATHER SERVICE KANSAS CITY/PLEASANT HILL MO
600 AM CDT THU MAR 30 2017

KSZ040-057-103>105-MOZ028-029-037-043-301200-
...KANSAS CITY METROPOLITAN AREA...

CITY           SKY/WX    TMP DP  RH WIND       PRES   REMARKS
K.C. INTL      CLOUDY    49  47  93 S8        29.55S
K.C. DOWNTOWN  CLOUDY    50  45  83 S8        29.56R
LEES SUMMIT    CLOUDY    48  45  89 S3        29.56F
OLATHE - IXD   CLOUDY    47  45  93 S9        29.55S
OLATHE - OJC   CLOUDY    47  45  93 S12       29.55S
LAWRENCE       LGT RAIN  48  48 100 E8        29.55S FOG

$$

MOZ001>008-011>017-020>025-030>033-038>040-044>046-053-054-301200-
...NORTHERN AND CENTRAL MISSOURI...

CITY           SKY/WX    TMP DP  RH WIND       PRES   REMARKS
ST. JOSEPH     CLOUDY    50  49  96 E12       29.56S
MOSBY          CLOUDY    52  50  93 CALM      29.56S
WARRENSBURG    PTCLDY    46  45  93 S6        29.58S
WHITEMAN AFB   CLEAR     47  47 100 SW15      29.57R
CLINTON        PTCLDY    46  45  93 SW7       29.59S
SEDALIA        MOCLDY    52  48  86 SW12      29.58S
WARSAW         NOT AVBL
CHILLICOTHE      N/A     48  46  93 E6        29.58F
KIRKSVILLE     CLOUDY    48  32  53 NE14      29.59F HAZE

$$

MOZ041-047>049-056>058-063>065-088>090-097-301200-
...EASTERN AND SOUTHERN MISSOURI...

CITY           SKY/WX    TMP DP  RH WIND       PRES   REMARKS
ST. LOUIS INTL CLOUDY    61  57  87 CALM      29.61R
SPIRIT OF STL  LGT RAIN  61  59  93 S6        29.59S
COLUMBIA       CLOUDY    58  58 100 S3        29.57R FOG
JEFFERSON CITY CLOUDY    62  58  86 E3        29.57S
ROLLA          CLOUDY    58  57  97 SE7       29.57F
OSAGE BEACH    CLEAR     55  55 100 S5        29.57F
SPRINGFIELD    PTCLDY    47  43  86 SW9       29.60S
BRANSON        CLOUDY    50  43  76 SW10G16   29.64R
JOPLIN         CLOUDY    47  42  83 S20       29.61S
WEST PLAINS    CLOUDY    60  58  92 S7        29.61F

$$

IAZ060-094-KSZ022-034>040-054-083-096-NEZ052-066-093-301200-
...KANSAS...SOUTHEAST NEBRASKA AND IOWA...

CITY           SKY/WX    TMP DP  RH WIND       PRES   REMARKS
TOPEKA         LGT RAIN  49  48  97 SE3       29.54S
MANHATTAN      LGT RAIN  45  43  93 N12G24    29.58R
EMPORIA        LGT RAIN  45  45 100 W13       29.51F
CHANUTE        CLOUDY    46  44  93 SW14      29.55F
WICHITA        DRIZZLE   42  42 100 NW21      29.63F WCI  33
OMAHA          LGT RAIN  42  37  82 N17       29.70S WCI  34
LINCOLN        CLOUDY    40  39  97 N22G29    29.70S FOG     WCI  30
FALLS CITY     HVY RAIN  45  45 100 N10       29.59R FOG
LAMONI         CLOUDY    44  43  96 E13G22    29.59S
DES MOINES     CLOUDY    43  40  89 NE13G21   29.66S

$$




USA.gov is the U.S. government's official web portal to all federal, state and local government web resources and services.